Location: *
(50.6089°N, 2.2719°E)
Time: 15:34:27
(UTC+00:00)

STARLINK-68 - Pass Details

Date: 18 October 2019
Orbit: 548 x 551 km, 53.0° (Epoch: 20 November)

Event Time Altitude Azimuth Distance (km) Brightness Sun altitude
Rises 19:06:47 0° 274° (W) 2,718 8.7 -21.8°
Reaches altitude 10° 19:09:03 10° 278° (W) 1,825 7.4 -22.2°
Maximum altitude 19:13:09 61° 359° (N) 629 3.8 -22.8°
Enters shadow 19:13:19 60° 13° (NNE) 633 3.8 -22.8°
